[TLELIST] Archives

 

[TLELIST] Current TLEs

October 8th 2023 PST

HST 1 20580U 90037B 23281.19211652 .00008653 00000-0 44963-3 0 9998 2 20580 28.4684 235.5420 0002597 162.2268 219.2084 15.14333632638868 ISS (ZARYA) 1 25544U 98067A 23281.42040407 .00020264 00000-0 36288-3 0 9991 2 25544 51.6406 127.6700 0005285 86.2261 337.2577 15.49931531419359 CXO 1 25867U 99040B 23281.65886807 .00001046 00000-0 00000-0 0 9995 2 25867 37.3943 182.3034 9047864 274.3273 0.2458 0.37808497 13612 ...Continue Reading

[TLELIST] Current TLEs

October 8th 2023 PST

HST 1 20580U 90037B 23281.19211652 .00008653 00000-0 44963-3 0 9998 2 20580 28.4684 235.5420 0002597 162.2268 219.2084 15.14333632638868 ISS (ZARYA) 1 25544U 98067A 23281.42040407 .00020264 00000-0 36288-3 0 9991 2 25544 51.6406 127.6700 0005285 86.2261 337.2577 15.49931531419359 CXO 1 25867U 99040B 23281.65886807 .00001046 00000-0 00000-0 0 9995 2 25867 37.3943 182.3034 9047864 274.3273 0.2458 0.37808497 13612 ...Continue Reading

[TLELIST] Current TLEs

October 7th 2023 PST

HST 1 20580U 90037B 23280.01049774 .00008962 00000-0 46628-3 0 9995 2 20580 28.4687 243.4169 0002630 150.6742 256.2655 15.14313965638687 ISS (ZARYA) 1 25544U 98067A 23280.37572917 .00019568 00000-0 35128-3 0 9997 2 25544 51.6407 132.8447 0005407 80.4167 270.2627 15.49886039419188 CXO 1 25867U 99040B 23281.65886807 .00001046 00000-0 00000-0 0 9995 2 25867 37.3943 182.3034 9047864 274.3273 0.2458 0.37808497 13612 ...Continue Reading

[TLELIST] Current TLEs

October 7th 2023 PST

HST 1 20580U 90037B 23280.01049774 .00008962 00000-0 46628-3 0 9995 2 20580 28.4687 243.4169 0002630 150.6742 256.2655 15.14313965638687 ISS (ZARYA) 1 25544U 98067A 23280.37572917 .00019568 00000-0 35128-3 0 9997 2 25544 51.6407 132.8447 0005407 80.4167 270.2627 15.49886039419188 CXO 1 25867U 99040B 23281.65886807 .00001046 00000-0 00000-0 0 9995 2 25867 37.3943 182.3034 9047864 274.3273 0.2458 0.37808497 13612 ...Continue Reading

[TLELIST] Current TLEs

October 7th 2023 PST

HST 1 20580U 90037B 23280.01049774 .00008962 00000-0 46628-3 0 9995 2 20580 28.4687 243.4169 0002630 150.6742 256.2655 15.14313965638687 ISS (ZARYA) 1 25544U 98067A 23280.37572917 .00019568 00000-0 35128-3 0 9997 2 25544 51.6407 132.8447 0005407 80.4167 270.2627 15.49886039419188 CXO 1 25867U 99040B 23281.65886807 .00001046 00000-0 00000-0 0 9995 2 25867 37.3943 182.3034 9047864 274.3273 0.2458 0.37808497 13612 ...Continue Reading

[TLELIST] Current TLEs

October 6th 2023 PST

HST 1 20580U 90037B 23278.64784743 .00009067 00000-0 47218-3 0 9996 2 20580 28.4690 252.4987 0002631 136.7663 26.9147 15.14290805638211 ISS (ZARYA) 1 25544U 98067A 23279.42111712 .00018776 00000-0 33792-3 0 9998 2 25544 51.6405 137.5729 0005353 77.7362 343.1355 15.49844494419049 CXO 1 25867U 99040B 23279.01445405 .00000960 00000-0 00000-0 0 9991 2 25867 37.3871 182.6615 9048725 274.0211 0.2816 0.37811202 13599 ...Continue Reading

[TLELIST] Current TLEs

October 5th 2023 PST

HST 1 20580U 90037B 23277.65946811 .00008188 00000-0 42570-3 0 9991 2 20580 28.4691 259.0856 0002646 126.8440 38.0454 15.14273024638061 ISS (ZARYA) 1 25544U 98067A 23278.34341472 .00019200 00000-0 34581-3 0 9996 2 25544 51.6405 142.9124 0005554 72.3850 91.6166 15.49804239418872 CXO 1 25867U 99040B 23279.01445405 .00000960 00000-0 00000-0 0 9991 2 25867 37.3871 182.6615 9048725 274.0211 0.2816 0.37811202 13599 ...Continue Reading

[TLELIST] Current TLEs

October 4th 2023 PST

HST 1 20580U 90037B 23276.67083958 .00007069 00000-0 36637-3 0 9990 2 20580 28.4692 265.6738 0002666 116.7993 47.9981 15.14256538637915 ISS (ZARYA) 1 25544U 98067A 23277.37755377 .00020562 00000-0 37016-3 0 9990 2 25544 51.6409 147.6978 0005451 70.2852 101.4099 15.49771410418723 CXO 1 25867U 99040B 23279.01445405 .00000960 00000-0 00000-0 0 9991 2 25867 37.3871 182.6615 9048725 274.0211 0.2816 0.37811202 13599 ...Continue Reading

[TLELIST] Current TLEs

October 4th 2023 PST

HST 1 20580U 90037B 23276.67083958 .00007069 00000-0 36637-3 0 9990 2 20580 28.4692 265.6738 0002666 116.7993 47.9981 15.14256538637915 ISS (ZARYA) 1 25544U 98067A 23277.37755377 .00020562 00000-0 37016-3 0 9990 2 25544 51.6409 147.6978 0005451 70.2852 101.4099 15.49771410418723 CXO 1 25867U 99040B 23279.01445405 .00000960 00000-0 00000-0 0 9991 2 25867 37.3871 182.6615 9048725 274.0211 0.2816 0.37811202 13599 ...Continue Reading

[TLELIST] Current TLEs

October 4th 2023 PST

HST 1 20580U 90037B 23276.67083958 .00007069 00000-0 36637-3 0 9990 2 20580 28.4692 265.6738 0002666 116.7993 47.9981 15.14256538637915 ISS (ZARYA) 1 25544U 98067A 23277.37755377 .00020562 00000-0 37016-3 0 9990 2 25544 51.6409 147.6978 0005451 70.2852 101.4099 15.49771410418723 CXO 1 25867U 99040B 23279.01445405 .00000960 00000-0 00000-0 0 9991 2 25867 37.3871 182.6615 9048725 274.0211 0.2816 0.37811202 13599 ...Continue Reading
  • This mailing list is a public mailing list - anyone may join or leave, at any time.
  • This mailing list is announce-only.

International Space Station (ISS) / Hubble Space Telescope (HST) / Chandra X-Ray Observatory Orbital Data via EMAIL

Privacy Policy:

Private list